FW2000 Weather Reports


Display with metric or nautical units.
time (UTC)temp
F
wind
direction
speed
MPH
gust
MPH
rain 1hr
in
rain 24hr
in
rain mn
in
humidity
%
barometer
mb
20260831104029 66 72 3.0 5.0 0.00 0.00 0.00 49 1010.8
20260831103528 66 90 2.0 6.0 0.00 0.00 0.00 49 1010.8
20260831103029 66 110 2.0 6.0 0.00 0.00 0.00 48 1010.8
20260831102528 66 84 2.0 5.0 0.00 0.00 0.00 48 1010.8
20260831102033 66 79 2.0 6.0 0.00 0.00 0.00 48 1010.8
20260831101531 66 86 3.0 8.0 0.00 0.00 0.00 48 1010.8
20260831101032 66 86 3.0 8.0 0.00 0.00 0.00 49 1010.8
20260831100528 66 71 4.0 7.0 0.00 0.00 0.00 49 1010.8
20260831100027 66 88 3.0 7.0 0.00 0.00 0.00 49 1010.9
20260831095527 66 104 2.0 6.0 0.00 0.00 0.00 49 1010.8
20260831095031 66 125 1.0 7.0 0.00 0.00 0.00 49 1010.9
20260831094526 66 129 3.0 7.0 0.00 0.00 0.00 49 1010.9
20260831094025 66 100 2.0 7.0 0.00 0.00 0.00 49 1010.9
20260831093525 66 96 3.0 6.0 0.00 0.00 0.00 49 1010.8
20260831093025 66 81 3.0 8.0 0.00 0.00 0.00 49 1010.8
20260831092524 66 94 5.0 8.0 0.00 0.00 0.00 49 1010.8
20260831092024 66 73 3.0 6.0 0.00 0.00 0.00 49 1010.8
20260831091523 66 76 3.0 6.0 0.00 0.00 0.00 49 1010.8
20260831091026 66 86 4.0 6.0 0.00 0.00 0.00 50 1010.9
20260831090523 66 101 2.0 8.0 0.00 0.00 0.00 50 1010.8
20260831090026 66 105 3.0 8.0 0.00 0.00 0.00 50 1010.8
20260831085522 66 79 2.0 6.0 0.00 0.00 0.00 49 1010.8
20260831085021 66 88 2.0 6.0 0.00 0.00 0.00 49 1010.9
20260831084524 66 97 1.0 5.0 0.00 0.00 0.00 49 1010.8
20260831084020 66 88 2.0 6.0 0.00 0.00 0.00 49 1010.9
20260831083520 66 78 1.0 4.0 0.00 0.00 0.00 49 1010.9
20260831083019 66 85 1.0 3.0 0.00 0.00 0.00 49 1011.0
20260831082518 67 79 1.0 4.0 0.00 0.00 0.00 49 1011.0
20260831082017 67 82 1.0 4.0 0.00 0.00 0.00 49 1011.1
20260831081517 67 84 1.0 6.0 0.00 0.00 0.00 49 1011.1
20260831081017 67 69 1.0 6.0 0.00 0.00 0.00 49 1011.1
20260831080515 67 77 2.0 3.0 0.00 0.00 0.00 49 1011.1
20260831080015 67 81 0.0 6.0 0.00 0.00 0.00 49 1011.2
20260831075515 67 80 2.0 6.0 0.00 0.00 0.00 49 1011.2
20260831075014 67 88 2.0 5.0 0.00 0.00 0.00 49 1011.2
20260831074513 67 73 1.0 6.0 0.00 0.00 0.00 49 1011.3
20260831074014 67 84 1.0 6.0 0.00 0.00 0.00 49 1011.2
20260831073517 67 84 1.0 4.0 0.00 0.00 0.00 49 1011.3
20260831073022 67 80 1.0 4.0 0.00 0.00 0.00 48 1011.3
20260831072510 67 80 1.0 7.0 0.00 0.00 0.00 48 1011.3
20260831072010 67 77 1.0 7.0 0.00 0.00 0.00 48 1011.2
20260831071509 68 77 1.0 5.0 0.00 0.00 0.00 48 1011.4
20260831071009 68 58 3.0 5.0 0.00 0.00 0.00 48 1011.3
20260831070509 68 63 2.0 6.0 0.00 0.00 0.00 48 1011.3
20260831070012 68 75 2.0 6.0 0.00 0.00 0.00 48 1011.3
20260831065509 68 82 0.0 6.0 0.00 0.00 0.00 48 1011.3
20260831065011 68 92 2.0 8.0 0.00 0.00 0.00 48 1011.3
20260831064508 68 84 1.0 8.0 0.00 0.00 0.00 48 1011.3
20260831064007 68 68 3.0 6.0 0.00 0.00 0.00 48 1011.3
20260831063507 68 96 0.0 4.0 0.00 0.00 0.00 48 1011.3
20260831063013 68 111 0.0 4.0 0.00 0.00 0.00 47 1011.3
20260831062507 68 119 0.0 3.0 0.00 0.00 0.00 47 1011.4
20260831062010 68 92 0.0 6.0 0.00 0.00 0.00 46 1011.4
20260831061507 68 117 1.0 4.0 0.00 0.00 0.00 46 1011.4
20260831061007 69 74 1.0 5.0 0.00 0.00 0.00 45 1011.3
20260831060511 69 78 3.0 5.0 0.00 0.00 0.00 45 1011.3
20260831060007 69 84 1.0 4.0 0.00 0.00 0.00 44 1011.2
20260831055507 69 58 1.0 4.0 0.00 0.00 0.00 44 1011.3
20260831055006 70 98 0.0 3.0 0.00 0.00 0.00 43 1011.3
20260831054513 70 102 0.0 3.0 0.00 0.00 0.00 43 1011.3
20260831054006 70 101 1.0 3.0 0.00 0.00 0.00 42 1011.4
20260831053506 70 101 0.0 3.0 0.00 0.00 0.00 41 1011.3
20260831053006 70 102 0.0 2.0 0.00 0.00 0.00 41 1011.4
20260831052505 70 103 0.0 4.0 0.00 0.00 0.00 40 1011.4
20260831052005 70 115 0.0 4.0 0.00 0.00 0.00 40 1011.5
20260831051513 70 90 1.0 4.0 0.00 0.00 0.00 40 1011.5
20260831051005 71 92 1.0 3.0 0.00 0.00 0.00 39 1011.5
20260831050505 71 98 1.0 2.0 0.00 0.00 0.00 38 1011.5
20260831050005 71 107 0.0 2.0 0.00 0.00 0.00 37 1011.6
20260831045505 71 136 0.0 2.0 0.00 0.00 0.00 37 1011.7
20260831045005 71 136 0.0 2.0 0.00 0.00 0.00 37 1011.7
20260831044504 71 198 0.0 2.0 0.00 0.00 0.00 37 1011.7
20260831044005 71 208 0.0 2.0 0.00 0.00 0.00 38 1011.7
20260831043504 71 208 1.0 2.0 0.00 0.00 0.00 39 1011.5
20260831043004 72 209 0.0 3.0 0.00 0.00 0.00 39 1011.5
20260831042504 72 240 0.0 3.0 0.00 0.00 0.00 38 1011.6
20260831042004 72 266 1.0 2.0 0.00 0.00 0.00 37 1011.4
20260831041504 73 271 0.0 1.0 0.00 0.00 0.00 34 1011.3
20260831041004 73 271 0.0 1.0 0.00 0.00 0.00 34 1011.3
20260831040503 73 271 0.0 1.0 0.00 0.00 0.00 34 1011.2
20260831040002 73 271 0.0 0.0 0.00 0.00 0.00 33 1011.2
20260831035504 73 271 0.0 2.0 0.00 0.00 0.00 33 1011.2
20260831035002 73 271 0.0 2.0 0.00 0.00 0.00 33 1011.1
20260831034505 73 271 0.0 1.0 0.00 0.00 0.00 34 1011.1
20260831034002 73 271 0.0 2.0 0.00 0.00 0.00 34 1011.1
20260831033503 73 271 1.0 3.0 0.00 0.00 0.00 34 1011.0
20260831033003 73 271 0.0 3.0 0.00 0.00 0.00 34 1011.0
20260831032502 73 271 1.0 3.0 0.00 0.00 0.00 34 1011.1
20260831032002 73 271 1.0 3.0 0.00 0.00 0.00 34 1011.0
20260831031501 74 271 1.0 4.0 0.00 0.00 0.00 34 1011.0
20260831031003 74 271 2.0 4.0 0.00 0.00 0.00 35 1011.0
20260831030503 74 270 2.0 4.0 0.00 0.00 0.00 35 1011.0
20260831030000 74 270 1.0 4.0 0.00 0.00 0.00 35 1010.9
20260831025501 74 270 2.0 4.0 0.00 0.00 0.00 35 1011.0
20260831025002 74 266 1.0 3.0 0.00 0.00 0.00 35 1011.0
20260831024638 75 266 2.0 4.0 0.00 0.00 0.00 35 1011.0
20260831024101 75 265 2.0 4.0 0.00 0.00 0.00 35 1011.1
20260831023559 75 273 1.0 4.0 0.00 0.00 0.00 35 1011.0
20260831023100 76 273 2.0 4.0 0.00 0.00 0.00 35 1011.0
20260831022559 76 267 2.0 4.0 0.00 0.00 0.00 35 1011.0
20260831022100 76 255 2.0 4.0 0.00 0.00 0.00 35 1011.0
20260831021600 77 259 1.0 4.0 0.00 0.00 0.00 35 1011.0
20260831021100 77 240 1.0 4.0 0.00 0.00 0.00 35 1011.0
20260831020600 78 267 2.0 4.0 0.00 0.00 0.00 35 1010.9
20260831020100 78 254 1.0 5.0 0.00 0.00 0.00 35 1010.9
20260831015559 78 278 1.0 4.0 0.00 0.00 0.00 34 1010.9
20260831015059 79 237 2.0 6.0 0.00 0.00 0.00 34 1010.9
20260831014603 79 253 2.0 6.0 0.00 0.00 0.00 34 1010.9
20260831014058 79 246 1.0 6.0 0.00 0.00 0.00 33 1010.9
20260831013558 80 275 2.0 7.0 0.00 0.00 0.00 33 1010.9
20260831013112 80 240 1.0 5.0 0.00 0.00 0.00 33 1010.9
20260831012558 80 229 2.0 5.0 0.00 0.00 0.00 33 1011.0
20260831012057 80 269 2.0 4.0 0.00 0.00 0.00 32 1011.0
20260831011559 81 263 2.0 4.0 0.00 0.00 0.00 32 1011.0
20260831011057 81 202 1.0 7.0 0.00 0.00 0.00 32 1011.1
20260831010556 81 198 3.0 8.0 0.00 0.00 0.00 32 1011.0
20260831010056 81 279 4.0 8.0 0.00 0.00 0.00 32 1010.9
20260831005556 82 286 3.0 7.0 0.00 0.00 0.00 32 1011.0
20260831005055 82 265 2.0 7.0 0.00 0.00 0.00 31 1011.0
20260831004554 82 273 3.0 7.0 0.00 0.00 0.00 31 1011.1
20260831004054 82 214 1.0 8.0 0.00 0.00 0.00 31 1011.2
20260831003553 82 271 2.0 8.0 0.00 0.00 0.00 31 1011.1
20260831003056 82 250 2.0 7.0 0.00 0.00 0.00 31 1011.2
20260831002553 82 255 2.0 8.0 0.00 0.00 0.00 31 1011.2
20260831002053 83 252 3.0 9.0 0.00 0.00 0.00 30 1011.1
20260831001552 83 301 5.0 9.0 0.00 0.00 0.00 30 1011.2
20260831001052 83 273 1.0 8.0 0.00 0.00 0.00 30 1011.2
20260831000552 83 278 2.0 8.0 0.00 0.00 0.00 30 1011.2
20260831000053 83 280 4.0 10.0 0.00 0.00 0.00 30 1011.2
20260830235551 84 273 3.0 11.0 0.00 0.00 0.00 29 1011.2
20260830235052 84 282 3.0 9.0 0.00 0.00 0.00 29 1011.1
20260830234552 84 286 3.0 7.0 0.00 0.00 0.00 29 1011.2
20260830234052 84 219 0.0 7.0 0.00 0.00 0.00 30 1011.1
20260830233549 84 282 2.0 16.0 0.00 0.00 0.00 29 1011.2
20260830233048 84 252 2.0 16.0 0.00 0.00 0.00 29 1011.1
20260830232549 84 279 5.0 10.0 0.00 0.00 0.00 29 1011.1
20260830232048 84 211 3.0 8.0 0.00 0.00 0.00 29 1011.2
20260830231548 83 246 2.0 7.0 0.00 0.00 0.00 30 1011.2
20260830231049 83 253 2.0 8.0 0.00 0.00 0.00 30 1011.2
20260830230546 85 160 4.0 8.0 0.00 0.00 0.00 29 1011.1
20260830230047 85 200 2.0 10.0 0.00 0.00 0.00 29 1011.2
20260830225545 85 236 2.0 10.0 0.00 0.00 0.00 29 1011.1
20260830225045 85 257 4.0 8.0 0.00 0.00 0.00 29 1011.2
20260830224544 85 279 2.0 8.0 0.00 0.00 0.00 29 1011.4
20260830224044 85 268 2.0 9.0 0.00 0.00 0.00 29 1011.2
20260830223544 85 262 3.0 11.0 0.00 0.00 0.00 29 1011.3
20260830223043 85 236 2.0 11.0 0.00 0.00 0.00 29 1011.3
20260830222542 85 246 2.0 8.0 0.00 0.00 0.00 29 1011.3
20260830222042 86 261 3.0 9.0 0.00 0.00 0.00 29 1011.4
20260830221546 85 249 2.0 12.0 0.00 0.00 0.00 29 1011.4
20260830221042 85 279 6.0 12.0 0.00 0.00 0.00 29 1011.4
20260830220540 86 213 3.0 11.0 0.00 0.00 0.00 28 1011.5
20260830220040 86 273 6.0 13.0 0.00 0.00 0.00 29 1011.6
20260830215540 85 250 4.0 16.0 0.00 0.00 0.00 29 1011.7
20260830215039 86 243 3.0 16.0 0.00 0.00 0.00 28 1011.7
20260830214539 86 252 2.0 10.0 0.00 0.00 0.00 28 1011.8
20260830214038 86 284 4.0 10.0 0.00 0.00 0.00 28 1011.9
20260830213537 86 273 3.0 10.0 0.00 0.00 0.00 28 1011.9
20260830213037 86 231 3.0 10.0 0.00 0.00 0.00 28 1011.9
20260830212537 86 286 4.0 13.0 0.00 0.00 0.00 28 1012.1
20260830212037 85 331 4.0 16.0 0.00 0.00 0.00 28 1012.1
20260830211537 85 273 6.0 16.0 0.00 0.00 0.00 29 1012.0
20260830211036 85 248 3.0 11.0 0.00 0.00 0.00 29 1012.1
20260830210536 85 273 3.0 10.0 0.00 0.00 0.00 28 1012.2
20260830210036 85 285 5.0 12.0 0.00 0.00 0.00 28 1012.2
20260830205537 85 220 4.0 11.0 0.00 0.00 0.00 28 1012.2
20260830205034 85 269 4.0 14.0 0.00 0.00 0.00 28 1012.1
20260830204534 85 273 8.0 14.0 0.00 0.00 0.00 28 1012.1
20260830204036 85 213 6.0 15.0 0.00 0.00 0.00 28 1012.1
20260830203535 85 283 5.0 14.0 0.00 0.00 0.00 28 1012.0
20260830203042 85 286 5.0 11.0 0.00 0.00 0.00 29 1012.1
20260830202533 85 283 6.0 14.0 0.00 0.00 0.00 28 1012.0
20260830202033 85 264 6.0 14.0 0.00 0.00 0.00 29 1012.0
20260830201543 85 277 6.0 10.0 0.00 0.00 0.00 28 1012.0
20260830201033 86 225 3.0 12.0 0.00 0.00 0.00 28 1012.0
20260830200534 86 242 4.0 10.0 0.00 0.00 0.00 27 1012.0
20260830200031 87 275 5.0 10.0 0.00 0.00 0.00 28 1011.9
20260830195531 86 238 1.0 8.0 0.00 0.00 0.00 28 1012.0
20260830195030 86 261 2.0 10.0 0.00 0.00 0.00 28 1012.0
20260830194529 86 220 3.0 10.0 0.00 0.00 0.00 28 1012.1
20260830194027 87 232 3.0 9.0 0.00 0.00 0.00 27 1012.0
20260830193529 88 182 2.0 7.0 0.00 0.00 0.00 27 1012.2
20260830193027 87 175 1.0 8.0 0.00 0.00 0.00 27 1012.2
20260830192524 86 219 2.0 14.0 0.00 0.00 0.00 28 1012.2
20260830192028 85 227 4.0 14.0 0.00 0.00 0.00 28 1012.2
20260830191526 85 214 7.0 15.0 0.00 0.00 0.00 29 1012.2
20260830191022 85 290 3.0 8.0 0.00 0.00 0.00 28 1012.4
20260830190522 84 148 4.0 10.0 0.00 0.00 0.00 28 1012.4
20260830190030 85 199 6.0 11.0 0.00 0.00 0.00 28 1012.5
20260830185519 85 202 1.0 9.0 0.00 0.00 0.00 29 1012.5
20260830185019 85 186 2.0 10.0 0.00 0.00 0.00 29 1012.5
20260830184517 85 197 4.0 11.0 0.00 0.00 0.00 28 1012.6
20260830184017 85 182 5.0 11.0 0.00 0.00 0.00 28 1012.6
20260830183515 85 207 2.0 7.0 0.00 0.00 0.00 29 1012.6
20260830183015 84 184 2.0 7.0 0.00 0.00 0.00 29 1012.6
20260830182513 83 284 2.0 9.0 0.00 0.00 0.00 29 1012.6
20260830182013 83 261 4.0 10.0 0.00 0.00 0.00 30 1012.6
20260830181513 83 205 3.0 9.0 0.00 0.00 0.00 30 1012.7
20260830181011 83 221 2.0 6.0 0.00 0.00 0.00 30 1012.6
20260830180510 82 252 0.0 7.0 0.00 0.00 0.00 31 1012.6
20260830180012 83 187 4.0 7.0 0.00 0.00 0.00 30 1012.6
20260830175509 84 186 0.0 6.0 0.00 0.00 0.00 30 1012.7
20260830175008 84 205 3.0 6.0 0.00 0.00 0.00 28 1012.6
20260830174507 84 355 0.0 3.0 0.00 0.00 0.00 29 1012.6
20260830174006 83 57 0.0 6.0 0.00 0.00 0.00 30 1012.6
20260830173507 83 135 1.0 6.0 0.00 0.00 0.00 29 1012.6
20260830173007 84 151 2.0 5.0 0.00 0.00 0.00 28 1012.6
20260830172503 83 65 1.0 4.0 0.00 0.00 0.00 28 1012.6
20260830172002 83 30 1.0 7.0 0.00 0.00 0.00 28 1012.6
20260830171614 82 55 2.0 9.0 0.00 0.00 0.00 28 1012.5
20260830171059 82 14 3.0 9.0 0.00 0.00 0.00 28 1012.5
20260830170558 81 82 2.0 10.0 0.00 0.00 0.00 28 1012.6
20260830170057 81 74 4.0 10.0 0.00 0.00 0.00 28 1012.6
20260830165554 81 65 3.0 8.0 0.00 0.00 0.00 29 1012.5
20260830165053 81 29 3.0 7.0 0.00 0.00 0.00 29 1012.6
20260830164608 80 80 3.0 9.0 0.00 0.00 0.00 29 1012.6
20260830164050 80 46 3.0 6.0 0.00 0.00 0.00 30 1012.6
20260830163549 79 25 2.0 7.0 0.00 0.00 0.00 31 1012.5
20260830163101 79 23 1.0 7.0 0.00 0.00 0.00 31 1012.6
20260830162546 79 87 2.0 6.0 0.00 0.00 0.00 31 1012.7
20260830162045 78 96 2.0 7.0 0.00 0.00 0.00 31 1012.6
20260830161543 78 52 2.0 7.0 0.00 0.00 0.00 32 1012.6
20260830161042 77 65 3.0 6.0 0.00 0.00 0.00 32 1012.6
20260830160541 77 103 3.0 7.0 0.00 0.00 0.00 32 1012.6
20260830160039 76 60 2.0 6.0 0.00 0.00 0.00 33 1012.7
20260830155538 76 101 2.0 4.0 0.00 0.00 0.00 33 1012.6
20260830155037 75 82 2.0 4.0 0.00 0.00 0.00 34 1012.7
20260830154536 75 91 1.0 5.0 0.00 0.00 0.00 34 1012.7
20260830154037 75 86 2.0 6.0 0.00 0.00 0.00 34 1012.7
20260830153533 74 65 2.0 5.0 0.00 0.00 0.00 34 1012.7
20260830153031 74 81 2.0 5.0 0.00 0.00 0.00 35 1012.6
20260830152532 73 85 2.0 6.0 0.00 0.00 0.00 36 1012.7
20260830152028 72 115 1.0 5.0 0.00 0.00 0.00 36 1012.8
20260830151538 72 77 1.0 4.0 0.00 0.00 0.00 37 1012.8
20260830151026 71 92 1.0 4.0 0.00 0.00 0.00 37 1012.7
20260830150524 71 49 0.0 4.0 0.00 0.00 0.00 38 1012.7
20260830150023 70 100 1.0 4.0 0.00 0.00 0.00 38 1012.7
20260830145522 70 67 0.0 8.0 0.00 0.00 0.00 38 1012.7
20260830145020 69 63 2.0 8.0 0.00 0.00 0.00 38 1012.7
20260830144517 68 92 2.0 6.0 0.00 0.00 0.00 39 1012.7
20260830144018 68 70 0.0 3.0 0.00 0.00 0.00 40 1012.7
20260830143516 67 111 0.0 3.0 0.00 0.00 0.00 40 1012.7
20260830143015 67 121 0.0 3.0 0.00 0.00 0.00 40 1012.7
20260830142513 66 122 0.0 3.0 0.00 0.00 0.00 40 1012.6
20260830142014 66 98 0.0 2.0 0.00 0.00 0.00 41 1012.5
20260830141510 66 87 0.0 3.0 0.00 0.00 0.00 41 1012.4
20260830141008 65 85 0.0 4.0 0.00 0.00 0.00 41 1012.4
20260830140507 65 128 0.0 4.0 0.00 0.00 0.00 41 1012.4
20260830140006 65 94 0.0 6.0 0.00 0.00 0.00 41 1012.4
20260830135508 65 113 1.0 6.0 0.00 0.00 0.00 41 1012.2
20260830135005 65 96 1.0 5.0 0.00 0.00 0.00 41 1012.2
20260830134510 65 82 1.0 5.0 0.00 0.00 0.00 41 1012.1
20260830134004 65 86 0.0 4.0 0.00 0.00 0.00 41 1012.1
20260830133503 65 109 0.0 4.0 0.00 0.00 0.00 41 1012.0
20260830133002 66 108 0.0 4.0 0.00 0.00 0.00 41 1011.9
20260830132503 66 95 0.0 3.0 0.00 0.00 0.00 40 1011.8
20260830132100 66 120 0.0 3.0 0.00 0.00 0.00 40 1011.7
20260830131615 66 99 0.0 4.0 0.00 0.00 0.00 40 1011.7
20260830131059 67 85 1.0 4.0 0.00 0.00 0.00 40 1011.7
20260830130559 67 97 0.0 5.0 0.00 0.00 0.00 40 1011.8
20260830130100 67 88 1.0 7.0 0.00 0.00 0.00 40 1011.8
20260830125559 67 72 2.0 8.0 0.00 0.00 0.00 40 1011.7
20260830125058 67 89 3.0 8.0 0.00 0.00 0.00 40 1011.7
20260830124611 67 95 1.0 6.0 0.00 0.00 0.00 40 1011.8
20260830124057 67 86 1.0 5.0 0.00 0.00 0.00 40 1011.8
20260830123557 67 67 3.0 6.0 0.00 0.00 0.00 39 1011.7
20260830123058 68 91 0.0 6.0 0.00 0.00 0.00 39 1011.7
20260830122557 68 83 1.0 6.0 0.00 0.00 0.00 39 1011.7
20260830122100 68 96 2.0 9.0 0.00 0.00 0.00 39 1011.7
20260830121557 68 105 2.0 9.0 0.00 0.00 0.00 39 1011.7
20260830121056 68 70 3.0 7.0 0.00 0.00 0.00 39 1011.7
20260830120556 68 68 1.0 8.0 0.00 0.00 0.00 39 1011.7
20260830120056 68 65 4.0 9.0 0.00 0.00 0.00 38 1011.8
20260830115555 69 69 4.0 9.0 0.00 0.00 0.00 38 1011.7
20260830115055 69 44 2.0 8.0 0.00 0.00 0.00 38 1011.7
20260830114611 69 68 3.0 9.0 0.00 0.00 0.00 38 1011.7
20260830114054 69 57 4.0 9.0 0.00 0.00 0.00 38 1011.6
20260830113554 69 69 3.0 9.0 0.00 0.00 0.00 38 1011.7
20260830113057 69 71 4.0 9.0 0.00 0.00 0.00 38 1011.7
20260830112553 69 64 5.0 9.0 0.00 0.00 0.00 38 1011.7
20260830112053 69 64 5.0 10.0 0.00 0.00 0.00 39 1011.8
20260830111552 69 60 4.0 10.0 0.00 0.00 0.00 39 1011.8
20260830111051 68 67 4.0 9.0 0.00 0.00 0.00 39 1011.9
20260830110551 68 72 5.0 9.0 0.00 0.00 0.00 40 1011.9
20260830110052 68 61 5.0 9.0 0.00 0.00 0.00 40 1011.9
20260830105551 68 62 4.0 9.0 0.00 0.00 0.00 40 1011.9
20260830105051 68 71 4.0 10.0 0.00 0.00 0.00 40 1011.9
20260830104558 68 89 5.0 10.0 0.00 0.00 0.00 40 1011.9